Powrót do katalogu

COSMOS 1275 DEB

AktywnyPO
NORAD 12670·DEBRIS·🇷🇺 Russia

Wystrzelony Jun 4, 1981 z Plesetsk Cosmodrome

Loading…

Następne Przeloty (najbliższe 24 godziny)

TLE

ŚwieżeSource: Space-Track

Epoka: Sep 14, 2026, 15:52 UTC

1 12670U 81053AA  26257.66120138  .00000397  00000-0  35581-3 0  9996
2 12670  82.9409 137.5353 0054275 171.7993 217.2786 13.81207259266125

Śledź COSMOS 1275 DEB w czasie rzeczywistym z AllMySat

Download on the App Store